Regional Weather Roundup
Issued by NWS

Home | Current Version | Previous Version | Text Only | Print | Product List | Glossary On
Versions: 1 2 3 4 5 6 7 8 9 10 11 12 13 14 15 16 17 18 19 20 21 22 23 24 25 26 27 28 29 30 31 32 33 34 35 36 37 38 39 40 41 42 43 44 45 46 47 48 49 50
000
ASUS43 KDTX 301410
RWRMI
MICHIGAN HOURLY REGIONAL WEATHER ROUNDUP
NATIONAL WEATHER SERVICE DETROIT/PONTIAC MI
1000 AM EDT FRI SEP 30 2016

NOTE: "FAIR" INDICATES FEW OR NO CLOUDS BELOW 12,000 FEET WITH NO
SIGNIFICANT WEATHER AND/OR OBSTRUCTION TO VISIBILITY.

MIZ047>049-052>055-059>063-066>070-074>076-081>083-301500-
SOUTHEAST LOWER MICHIGAN

CITY           SKY/WX    TMP DP  RH WIND       PRES   REMARKS
ADRIAN         CLOUDY    62  62 100 NE12      30.14S
ALMA           DRIZZLE   59  59 100 NE12G20   30.23S
ANN ARBOR      CLOUDY    60  60 100 N9G18     30.15S FOG
BAD AXE        CLOUDY    61  55  79 E12G20    30.26R
CARO           CLOUDY    60  55  84 E6        30.22S
DETROIT CITY   CLOUDY    59  59 100 NE9       30.17S
DETROIT        CLOUDY    63  60  90 E14G20    30.15F
FLINT          CLOUDY    58  56  93 E13       30.21R
GROSSE ILE     LGT RAIN  62  60  94 NE8       30.13F
HILLSDALE      CLOUDY    61  59  94 E12       30.13R
HOWELL         CLOUDY    59  58  96 E10       30.18S

CITY           SKY/WX    TMP DP  RH WIND       PRES   REMARKS
JACKSON        LGT RAIN  60  60 100 NE10      30.16R
LAMBERTVILLE   CLOUDY    65  60  82 E7        30.13R
LANSING        CLOUDY    59  56  89 NE10      30.19S
LAPEER         CLOUDY    57  55  91 E7        30.22S
MASON          CLOUDY    59  58  96 E7        30.18R FOG
MONROE         CLOUDY    65  61  86 E9G16     30.12S
MT. CLEMENS    CLOUDY    59  57  93 NE18      30.17S
PONTIAC        CLOUDY    58  55  90 E9        30.17S
PORT HURON     CLOUDY    57  55  94 E8        30.22R
TRI CITIES     CLOUDY    60  57  89 NE10      30.25R
MIDLAND        CLOUDY    61  57  86 NE10G16   30.24S
TROY           CLOUDY    59  56  88 NE9G16    30.20R
SAGINAW HB     CLOUDY    59  55  88 NE9       30.23R
$$
MIZ043>046-050>051-056>058-064>065-071>073-077>080-301500-
SOUTHWEST LOWER MICHIGAN

CITY           SKY/WX    TMP DP  RH WIND       PRES   REMARKS
BATTLE CREEK   CLOUDY    60  59  96 NE9       30.17R FOG
BENTON HARBOR  CLOUDY    61  57  87 NE8G20    30.13F
BIG RAPIDS     RAIN      58  57  96 NE7       30.25R
COLDWATER      CLOUDY    61  61  99 NE9       30.14R
FREMONT        CLOUDY    58  58  98 E8        30.22R FOG
HOLLAND        CLOUDY    60  58  92 NE8       30.18S
GRAND RAPIDS   DRIZZLE   59  57  93 NE15G23   30.19S
IONIA          CLOUDY    58  56  95 NE15      30.19S
KALAMAZOO      CLOUDY    60  57  89 NE8       30.16S FOG
LUDINGTON      CLOUDY    60  56  88 E8        30.24S
MARSHALL       RAIN      60  59  98 NE5       30.15R
MOUNT PLEASANT CLOUDY    59  58  95 NE6       30.24R
MUSKEGON       CLOUDY    61  59  93 NE12      30.21R
SOUTH HAVEN    CLOUDY    61  60  96 NE10      30.15S
$$
MIZ016>042-301500-
NORTHERN LOWER MICHIGAN

CITY           SKY/WX    TMP DP  RH WIND       PRES   REMARKS
ALPENA         CLOUDY    62  54  74 E14G22    30.34S
BEAVER ISLAND  MOSUNNY   61  56  82 NE8G17    30.34F
BELLAIRE       CLOUDY    62  54  74 NE10G18   30.30S
CADILLAC       CLOUDY    56  55  93 E14       30.26S
CHARLEVOIX     CLOUDY    61  55  81 E14G21    30.34S
FRANKFORT      CLOUDY    61  55  81 NE5       30.27S
GAYLORD        CLOUDY    59  52  77 E12G18    30.31F
GRAYLING       CLOUDY    59  55  84 E17       30.30S
HARBOR SPRINGS CLOUDY    60  55  82 NE15G22   30.33S
HOUGHTON LAKE  CLOUDY    58  54  86 NE14      30.29R
MANISTEE       CLOUDY    61  55  81 E12G17    30.25S
OSCODA         CLOUDY    61  54  79 E12G18    30.28F
PELLSTON       CLOUDY    61  53  75 E12       30.35F
ROGERS CITY    CLOUDY    61  55  83 E12       30.37R
TRAVERSE CITY  CLOUDY    63  55  75 NE8       30.27F
$$
MIZ007>008-015-301500-
EASTERN UPPER MICHIGAN

CITY           SKY/WX    TMP DP  RH WIND       PRES   REMARKS
KINROSS        SUNNY     57  50  77 E13       30.39S
MACKINAC ISLAN MOSUNNY   60  54  78 NE10      30.36S
NEWBERRY       SUNNY     56  54  92 N6        30.39S
S. S. MARIE    SUNNY     59  50  72 E8        30.39F
MUNISING         N/A     61  55  81 N6        30.39F
$$
MIZ004>006-011>014-085-301500-
CENTRAL UPPER MICHIGAN

CITY           SKY/WX    TMP DP  RH WIND       PRES   REMARKS
MANISTIQUE     MOSUNNY   57  53  85 N9        30.36F
ESCANABA       MOSUNNY   58  53  84 NE8       30.36S
MENOMINEE      CLOUDY    58  54  86 NE10      30.33S
SAWYER-GWINN   PTSUNNY   57  54  88 NE9       30.40F
$$
MIZ001>003-009>011-084-301500-
WESTERN UPPER MICHIGAN

CITY           SKY/WX    TMP DP  RH WIND       PRES   REMARKS
IRON MOUNTAIN  PTSUNNY  N/A N/A N/A MISG      30.37F
HOUGHTON       CLOUDY    58  55  90 E7        30.43S
COPPER HARBOR    N/A     61  58  90 CALM      30.44S
IRONWOOD       CLOUDY    50  50 100 E3        30.44S FOG
$$

ABBREVIATIONS USED IN REMARKS
   TC - TEMPERATURE IN CELSIUS
  WCI - WIND CHILL INDEX
   HX - HEAT INDEX
  VSB - VISIBILITY





USA.gov is the U.S. government's official web portal to all federal, state and local government web resources and services.